Flag for U.S.A. Weather past 2 weeks in Jacksonville, North Carolina, U.S.A.

Now
65 °F

Sunny.


Feels Like: 65 °F
Forecast: 46 / 67 °F
Wind: 12 mph from Northwest

Location: Jacksonville - New River

Current Time: Oct 23, 2014 at 1:31:47 PM

Latest Report: Oct 23, 2014 at 12:56 PM


Visibility: 10 mi

Pressure: 29.96 "Hg

Humidity: 47%

Dew point: 44 °F

Location of JacksonvilleLocation

Historic Weather in Jacksonville — Graph

°F

Jacksonville temperature yesterday

Maximum temperature yesterday: 66 °F (at 3:56 PM)
Minimum temperature yesterday: 51 °F (at 7:56 AM)
Average temperature yesterday: 58 °F

Past Weeks' High & Low Weather Summary

 TemperatureHumidityPressure
High87 °F (Oct 11, 2:56 PM)100% (Oct 11, 9:56 PM)30.25 "Hg (Oct 11, 9:56 PM)
Low42 °F (Oct 20, 4:56 AM)35% (Oct 9, 4:56 PM)29.73 "Hg (Oct 18, 3:56 PM)
Average66 °F76%30.00 "Hg
* Reported Oct 8 11:56 AM — Oct 23 11:56 AM, Jacksonville, Weather by CustomWeather, © 2014

Note: Actual official high and low records may vary slightly from our data, if they occured in-between our weather recording intervals... More about our weather records

Advertising

Jacksonville weather history for previous 24 hours

 ConditionsComfort  
Time TempWeatherWind HumidityBarometerVisibility
11:56 AM
Oct 23
63 °FSunny.9 mph48%29.99 "Hg10 mi
10:56 AM59 °FSunny.7 mph56%30.00 "Hg10 mi
9:56 AM57 °FSunny.12 mph60%30.00 "Hg10 mi
8:56 AM52 °FSunny.13 mph72%30.01 "Hg10 mi
7:56 AM47 °FClear.6 mph86%30.01 "Hg10 mi
6:56 AM46 °FClear.6 mph86%30.00 "Hg10 mi
5:56 AM48 °FClear.9 mph83%29.99 "Hg10 mi
4:56 AM48 °FClear.7 mph83%29.98 "Hg10 mi
3:56 AM49 °FClear.8 mph84%29.98 "Hg10 mi
2:56 AM49 °FClear.5 mph86%30.00 "Hg10 mi
1:56 AM51 °FClear.8 mph80%30.00 "Hg10 mi
12:56 AM51 °FClear.8 mph80%30.00 "Hg10 mi
11:56 PM
Oct 22
52 °FClear.6 mph80%30.00 "Hg10 mi
10:56 PM56 °FMostly cloudy.6 mph70%30.00 "Hg10 mi
9:56 PM56 °FOvercast.9 mph70%29.99 "Hg10 mi
8:56 PM56 °FPassing clouds.9 mph72%29.97 "Hg10 mi
7:56 PM54 °FPassing clouds.7 mph83%29.96 "Hg10 mi
6:56 PM57 °FPassing clouds.3 mph78%29.94 "Hg10 mi
5:56 PM63 °FPartly sunny.7 mph56%29.94 "Hg10 mi
4:56 PM65 °FOvercast.12 mph51%29.93 "Hg10 mi
3:56 PM66 °FPartly sunny.17 mph49%29.93 "Hg10 mi
2:56 PM64 °FMostly cloudy.18 mph50%29.93 "Hg10 mi
1:56 PM65 °FScattered clouds.17 mph49%29.93 "Hg10 mi
Weather by CustomWeather, © 2014

See weather overviewHow to use our weather pages